(282831) = 2006 TZ70

Discovered at Palomar on 2006-10-11 by NEAT.

Orbit

Orbit type: Main Belt

Note: WebGL enabled browser required.

epoch2024-03-31.0
epoch JD2460400.5
perihelion date2022-12-10.43995
perihelion JD2459923.93995
argument of perihelion (°)232.25727
ascending node (°)145.16363
inclination (°)4.95586
eccentricity0.1750199
perihelion distance (AU)2.0963981
Tisserand w.r.t. Jupiter3.4
ΔV w.r.t. Earth (km/sec)9.2
semimajor axis (AU)2.5411500
mean anomaly (°)115.95140
mean daily motion (°/day)0.24330910
aphelion distance (AU)2.986
period (years)4.05
P-vector [x]0.95244247
P-vector [y]0.29963103
P-vector [z]0.05544894
Q-vector [x]-0.30069606
Q-vector [y]0.89470931
Q-vector [z]0.33026828
absolute magnitude17.41
phase slope0.15
uncertainty0
referenceMPEC 2024-C181
observations used355
oppositions14
arc length (days)7776
first opposition used2002
last opposition used2024
residual rms (arc-secs)0.77
perturbers coarse indicatorM-v
perturbers precise indicator003Ek
first observation date used2002-10-31.0
last observation date used2024-02-14.0
computer nameMPCLINUX
JD of orbit computation2456966.874016
perihelion JD uncertainty (days)8.8321E-05
argument of perihelion uncertainty (°)7.0424E-05
ascending node uncertainty (°)6.6139E-05
inclination uncertainty (°)7.1013E-06
eccentricity uncertainty 1.4405E-07
perihelion distance uncertainty (AU)3.7557E-07
Minimum Orbit Intersection Distances (in AU)
for orbit epoch: 2460400.5, reference: E2024-CI1
Mercury1.74924
Venus1.37117
Earth1.10209
Mars0.68126
Jupiter2.47386
Saturn6.47117
Uranus15.5069
Neptune27.6078

Observations

370 total observations over interval: 2002 10 31.25724 – 2024 02 14.378841
These data are available for download (format description).

Date (UT) J2000 RA J2000 Dec Magn Location Ref
2002 10 31.25724 02 33 50.80 +05 45 52.5 19.1   704 – Lincoln Laboratory ETS, New Mexico MPS 213814
2002 10 31.27432 02 33 49.81 +05 45 47.6 20.4   704 – Lincoln Laboratory ETS, New Mexico MPS 213814
2002 10 31.32566 02 33 47.04 +05 45 33.2 20.2   704 – Lincoln Laboratory ETS, New Mexico MPS 213814
2002 11 06.47531 02 28 27.21 +05 16 39.7 20.7   608 – Haleakala-AMOS MPS 186542
2002 11 06.48635 02 28 26.61 +05 16 37.4 20.4   608 – Haleakala-AMOS MPS 186542
2002 11 06.49676 02 28 26.05 +05 16 34.2 20.7   608 – Haleakala-AMOS MPS 186542
2005 05 16.35809 16 18 45.18 -13 38 57.4 20.7 R G96 – Mt. Lemmon Survey MPS 186542
2005 05 16.36750 16 18 44.64 -13 38 54.9 20.4 R G96 – Mt. Lemmon Survey MPS 186542
2005 05 16.37693 16 18 44.13 -13 38 53.7 21.1 R G96 – Mt. Lemmon Survey MPS 186542
2005 05 16.38634 16 18 43.62 -13 38 51.7 20.2 R G96 – Mt. Lemmon Survey MPS 186542
2006 09 28.32451 02 06 38.78 +05 05 16.9 19.5 R 699 – Lowell Observatory-LONEOS MPS 186542
2006 09 28.34645 02 06 38.07 +05 05 07.2   699 – Lowell Observatory-LONEOS MPS 186542
2006 09 28.36840 02 06 37.36 +05 04 59.4   699 – Lowell Observatory-LONEOS MPS 186542
2006 09 28.39035 02 06 36.60 +05 04 50.2   699 – Lowell Observatory-LONEOS MPS 186542
2006 10 02.32777 02 04 33.34 +04 38 48.1 19.7 V G96 – Mt. Lemmon Survey MPS 185651
2006 10 02.33435 02 04 33.09 +04 38 45.3 19.6 V G96 – Mt. Lemmon Survey MPS 185651
2006 10 02.34104 02 04 32.88 +04 38 42.5 19.2 V G96 – Mt. Lemmon Survey MPS 185651
2006 10 02.34758 02 04 32.62 +04 38 40.4 19.6 V G96 – Mt. Lemmon Survey MPS 185651
2006 10 11.34776 01 58 32.64 +03 36 53.7 19.9 R 644 – Palomar Mountain/NEAT MPS 183171
2006 10 11.36866 01 58 31.64 +03 36 44.7 19.6 R 644 – Palomar Mountain/NEAT MPS 183171
2006 10 11.38961 01 58 30.65 +03 36 36.1 19.3 R 644 – Palomar Mountain/NEAT MPS 183171
2006 10 16.26862 01 54 43.16 +03 03 33.0 19.6 V 703 – Catalina Sky Survey MPS 183171
2006 10 16.27640 01 54 42.84 +03 03 30.0 19.4 V 703 – Catalina Sky Survey MPS 183171
2006 10 16.28420 01 54 42.40 +03 03 27.2 19.1 V 703 – Catalina Sky Survey MPS 183171
2006 10 16.29201 01 54 41.97 +03 03 23.5 19.1 V 703 – Catalina Sky Survey MPS 183171
2006 10 21.40685 01 50 31.04 +02 30 41.5 18.8 R 644 – Palomar Mountain/NEAT MPS 185651
2006 10 21.42721 01 50 29.98 +02 30 34.2 18.6 R 644 – Palomar Mountain/NEAT MPS 185651
2006 10 21.44766 01 50 28.97 +02 30 26.4 18.8 R 644 – Palomar Mountain/NEAT MPS 185651
2006 11 09.29971 01 36 27.01 +01 06 13.5 21.0   705 – Apache Point MPS 198188
2006 11 09.30054 01 36 26.98 +01 06 13.3 20.1 V 705 – Apache Point MPS 198188
2006 11 14.29999 01 33 47.07 +00 56 48.3 21.0   705 – Apache Point MPS 198188
2006 11 14.30082 01 33 47.05 +00 56 48.3 20.2 V 705 – Apache Point MPS 198188
2006 11 17.30076 01 32 29.60 +00 54 03.7 21.5   705 – Apache Point MPS 198751
2006 11 17.30160 01 32 29.59 +00 54 03.7 20.6 V 705 – Apache Point MPS 198751
2006 11 20.29433 01 31 27.33 +00 53 31.2 21.4   705 – Apache Point MPS 198751
2006 11 20.29516 01 31 27.31 +00 53 31.3 20.5 V 705 – Apache Point MPS 198751
2006 11 22.30503 01 30 54.24 +00 54 22.8 21.4   705 – Apache Point MPS 198751
2006 11 22.30587 01 30 54.24 +00 54 22.7 20.5 V 705 – Apache Point MPS 198751
2006 11 23.29868 01 30 40.59 +00 55 09.8 21.0   705 – Apache Point MPS 198751
2006 11 23.29951 01 30 40.57 +00 55 09.9 20.5 V 705 – Apache Point MPS 198751
2008 02 12.29481 10 55 24.55 +08 17 50.8 21.4 V 691 – Steward Observatory, Kitt Peak-Spacewatch MPS 237611
2008 02 12.31246 10 55 23.68 +08 17 58.3 21.0 V 691 – Steward Observatory, Kitt Peak-Spacewatch MPS 237611
2008 02 12.33009 10 55 22.85 +08 18 05.1 21.4 V 691 – Steward Observatory, Kitt Peak-Spacewatch MPS 237611
2010 09 15.36796 01 28 26.69 +02 44 39.3 20.3 V 691 – Steward Observatory, Kitt Peak-Spacewatch MPS 348019
2010 09 15.38561 01 28 26.26 +02 44 32.9 20.2 V 691 – Steward Observatory, Kitt Peak-Spacewatch MPS 348019
2010 09 15.40672 01 28 25.77 +02 44 24.2 19.9 V 691 – Steward Observatory, Kitt Peak-Spacewatch MPS 348019
2010 09 16.31634 01 28 05.60 +02 38 27.7 20.4 V 691 – Steward Observatory, Kitt Peak-Spacewatch MPS 348019
2010 09 16.33400 01 28 05.15 +02 38 20.6 20.6 V 691 – Steward Observatory, Kitt Peak-Spacewatch MPS 348019
2010 09 16.35168 01 28 04.71 +02 38 14.0 20.2 V 691 – Steward Observatory, Kitt Peak-Spacewatch MPS 348019
2010 09 27.434609 01 22 16.099 +01 19 06.49 19.42 i F51 – Pan-STARRS 1, Haleakala MPS 365628
2010 09 27.446007 01 22 15.619 +01 19 01.34 19.56 i F51 – Pan-STARRS 1, Haleakala MPS 365628
2010 09 28.460835 01 21 35.585 +01 11 23.11 19.98 r F51 – Pan-STARRS 1, Haleakala MPS 365628
2010 09 28.472301 01 21 35.094 +01 11 17.85 20.12 r F51 – Pan-STARRS 1, Haleakala MPS 365628
2010 10 04.29670 01 17 26.61 +00 27 17.1 19.0   704 – Lincoln Laboratory ETS, New Mexico MPS 349491
2010 10 04.31063 01 17 25.98 +00 27 10.3 19.5   704 – Lincoln Laboratory ETS, New Mexico MPS 349491
2010 10 04.33727 01 17 24.68 +00 26 58.2 20.0   704 – Lincoln Laboratory ETS, New Mexico MPS 349491
2010 10 04.35044 01 17 24.06 +00 26 52.3 20.2   704 – Lincoln Laboratory ETS, New Mexico MPS 349491
2010 10 07.23099 01 15 12.39 +00 05 28.3 19.4   704 – Lincoln Laboratory ETS, New Mexico MPS 386560
2010 10 07.24428 01 15 11.67 +00 05 23.7 19.3   704 – Lincoln Laboratory ETS, New Mexico MPS 386560
2010 10 07.25761 01 15 11.10 +00 05 15.4 20.0   704 – Lincoln Laboratory ETS, New Mexico MPS 386560
2010 10 07.27097 01 15 10.39 +00 05 12.7 20.0   704 – Lincoln Laboratory ETS, New Mexico MPS 386560
2010 10 07.513084 01 14 58.861 +00 03 24.37 20.30 g F51 – Pan-STARRS 1, Haleakala MPS 365628
2010 10 07.524669 01 14 58.287 +00 03 19.33 20.15 g F51 – Pan-STARRS 1, Haleakala MPS 365628
2010 10 08.28863 01 14 22.93 -00 02 15.6 19.2   704 – Lincoln Laboratory ETS, New Mexico MPS 386560
2010 10 08.30185 01 14 22.19 -00 02 22.0 19.5   704 – Lincoln Laboratory ETS, New Mexico MPS 386560
2010 10 08.31511 01 14 21.49 -00 02 28.2 19.4   704 – Lincoln Laboratory ETS, New Mexico MPS 386560
2010 10 08.32840 01 14 20.87 -00 02 35.3 19.3   704 – Lincoln Laboratory ETS, New Mexico MPS 386560
2010 10 08.34168 01 14 20.31 -00 02 39.3 19.3   704 – Lincoln Laboratory ETS, New Mexico MPS 386560
2010 10 11.43622 01 11 53.88 -00 24 40.2 19.1 V G96 – Mt. Lemmon Survey MPS 351289
2010 10 11.44440 01 11 53.52 -00 24 43.6 19.4 V G96 – Mt. Lemmon Survey MPS 351289
2010 10 11.44845 01 11 53.30 -00 24 45.2 19.5 V G96 – Mt. Lemmon Survey MPS 351289
2010 10 14.27483 01 09 40.08 -00 43 53.3 20.9 V 691 – Steward Observatory, Kitt Peak-Spacewatch MPS 351289
2010 10 14.29252 01 09 39.16 -00 44 00.7 19.8 V 691 – Steward Observatory, Kitt Peak-Spacewatch MPS 351289
2010 10 14.31026 01 09 38.26 -00 44 07.6 19.6 V 691 – Steward Observatory, Kitt Peak-Spacewatch MPS 351289
2012 01 19.46385 10 49 02.948 +07 44 47.26 21.8 w F51 – Pan-STARRS 1, Haleakala MPS 408706
2012 01 19.48668 10 49 02.390 +07 44 52.61 21.9 w F51 – Pan-STARRS 1, Haleakala MPS 408706
2012 01 19.50075 10 49 02.036 +07 44 55.86 22.3 w F51 – Pan-STARRS 1, Haleakala MPS 408706
2012 01 19.51482 10 49 01.703 +07 44 59.35 22.2 w F51 – Pan-STARRS 1, Haleakala MPS 408706
2012 02 23.17023 10 24 22.90 +11 10 44.4 20.9 V 691 – Steward Observatory, Kitt Peak-Spacewatch MPS 414078
2012 02 23.18818 10 24 21.95 +11 10 51.2 20.9 V 691 – Steward Observatory, Kitt Peak-Spacewatch MPS 414078
2012 02 23.20613 10 24 21.00 +11 10 59.0 20.8 V 691 – Steward Observatory, Kitt Peak-Spacewatch MPS 414078
2012 02 29.30237 10 18 55.90 +11 51 30.8 21.3 V G96 – Mt. Lemmon Survey MPS 416039
2012 02 29.30927 10 18 55.58 +11 51 34.0 21.0 V G96 – Mt. Lemmon Survey MPS 416039
2012 02 29.31626 10 18 55.15 +11 51 36.7 20.8 V G96 – Mt. Lemmon Survey MPS 416039
2012 02 29.32329 10 18 54.75 +11 51 39.7 20.6 V G96 – Mt. Lemmon Survey MPS 416039
2012 03 04.20990 10 15 34.54 +12 16 15.4 20.5 R 291 – LPL/Spacewatch II MPS 416039
2012 03 04.21336 10 15 34.41 +12 16 16.7 20.4 R 291 – LPL/Spacewatch II MPS 416039
2012 03 04.21679 10 15 34.22 +12 16 18.5 20.1 R 291 – LPL/Spacewatch II MPS 416039
2014 06 03.58784 23 36 13.409 -02 43 14.57 21.8 w F51 – Pan-STARRS 1, Haleakala MPS 518701
2014 06 03.59625 23 36 14.143 -02 43 10.50 22.0 w F51 – Pan-STARRS 1, Haleakala MPS 518701
